WZZ5UJ LEMH-EPWA

Flight info

Callsign WZZ5UJ
Flight time N/A
Altitude 32000
Route ISTER UN851 LUNOR DCT NIVDA DCT OMEDA DCT RAPUR DCT TORTU DCT ERTEV DCT OSBUL DCT IBUPU DCT ROKIB DCT MALUG DCT INGID DCT STO DCT LEDVA DCT NETIR DCT USALO DCT KOTEK DCT LOGDA
Aircraft A21N/M-SDE1E2E3FGIJ1J4RWXY/LB1

Departure

Time 2026-04-29 17:44
Airport Menorca Airport (LEMH)

Arrival

Time N/A
Airport Warsaw Chopin Airport (EPWA)
Time Latitude Longitude Altitude Speed Heading
2026-04-29 17:10 39.86316 4.22394 292 ft 0 kts 98°
2026-04-29 17:32 39.86316 4.22393 292 ft 1 kts 98°
2026-04-29 17:32 39.86318 4.22374 296 ft 3 kts 98°
2026-04-29 17:32 39.86322 4.22348 293 ft 4 kts 99°
2026-04-29 17:32 39.86325 4.22322 297 ft 5 kts 102°
2026-04-29 17:33 39.86331 4.22301 297 ft 5 kts 141°
2026-04-29 17:33 39.86345 4.22292 299 ft 5 kts 186°
2026-04-29 17:33 39.86357 4.22294 297 ft 5 kts 189°
2026-04-29 17:33 39.86371 4.22297 297 ft 4 kts 189°
2026-04-29 17:34 39.86372 4.22297 297 ft 2 kts 189°
2026-04-29 17:35 39.86371 4.22297 297 ft 0 kts 189°
2026-04-29 17:36 39.86366 4.22296 298 ft 1 kts 189°
2026-04-29 17:36 39.86354 4.22293 297 ft 2 kts 190°
2026-04-29 17:36 39.86337 4.22289 297 ft 3 kts 189°
2026-04-29 17:36 39.86308 4.22283 298 ft 5 kts 189°
2026-04-29 17:37 39.86269 4.22275 295 ft 7 kts 191°
2026-04-29 17:37 39.86218 4.22265 293 ft 6 kts 188°
2026-04-29 17:37 39.86183 4.22213 295 ft 10 kts 273°
2026-04-29 17:37 39.86191 4.22157 296 ft 8 kts 281°
2026-04-29 17:38 39.86161 4.22083 300 ft 12 kts 195°
2026-04-29 17:38 39.86077 4.22066 300 ft 13 kts 189°
2026-04-29 17:38 39.85982 4.22046 301 ft 15 kts 188°
2026-04-29 17:38 39.85876 4.22024 301 ft 16 kts 188°
2026-04-29 17:39 39.85763 4.22002 299 ft 17 kts 188°
2026-04-29 17:39 39.85643 4.21976 297 ft 18 kts 189°
2026-04-29 17:39 39.85519 4.21950 295 ft 19 kts 187°
2026-04-29 17:39 39.85389 4.21924 288 ft 19 kts 189°
2026-04-29 17:40 39.85298 4.21905 287 ft 9 kts 189°
2026-04-29 17:40 39.85229 4.21891 286 ft 11 kts 189°
2026-04-29 17:40 39.85166 4.21878 286 ft 9 kts 189°
2026-04-29 17:40 39.85126 4.21834 288 ft 8 kts 262°
2026-04-29 17:41 39.85130 4.21795 294 ft 0 kts 278°
2026-04-29 17:42 39.85132 4.21775 293 ft 5 kts 277°
2026-04-29 17:42 39.85139 4.21714 290 ft 8 kts 278°
2026-04-29 17:42 39.85150 4.21647 294 ft 7 kts 311°
2026-04-29 17:42 39.85177 4.21642 291 ft 0 kts
2026-04-29 17:43 39.85334 4.21675 292 ft 58 kts
2026-04-29 17:44 39.85997 4.21811 307 ft 134 kts
2026-04-29 17:44 39.87119 4.22037 454 ft 176 kts
2026-04-29 17:44 39.88318 4.22272 1195 ft 175 kts 13°
2026-04-29 17:44 39.89573 4.22539 1756 ft 194 kts 12°
2026-04-29 17:45 39.90896 4.23095 2175 ft 210 kts 39°
2026-04-29 17:45 39.91842 4.24645 2489 ft 232 kts 68°
2026-04-29 17:45 39.92507 4.26664 3018 ft 252 kts 70°
2026-04-29 17:45 39.93215 4.28820 3713 ft 263 kts 69°
2026-04-29 17:46 39.93961 4.31024 4572 ft 268 kts 68°
2026-04-29 17:46 39.94731 4.33250 5423 ft 272 kts 67°
2026-04-29 17:46 39.95523 4.35515 6234 ft 277 kts 66°
2026-04-29 17:46 39.96332 4.37817 7002 ft 281 kts 67°
2026-04-29 17:47 39.97151 4.40155 7790 ft 285 kts 66°
2026-04-29 17:47 39.97978 4.42519 8576 ft 288 kts 66°
2026-04-29 17:47 39.98817 4.44908 9352 ft 292 kts 66°
2026-04-29 17:47 39.99668 4.47337 10067 ft 298 kts 66°
2026-04-29 17:48 40.00552 4.49857 10464 ft 314 kts 65°
2026-04-29 17:48 40.01490 4.52522 10815 ft 331 kts 65°
2026-04-29 17:48 40.02469 4.55298 11308 ft 342 kts 65°
2026-04-29 17:48 40.03461 4.58135 11984 ft 346 kts 65°
2026-04-29 17:49 40.04466 4.61010 12695 ft 350 kts 65°
2026-04-29 17:49 40.05481 4.63912 13407 ft 354 kts 65°
2026-04-29 17:49 40.06528 4.66835 14064 ft 358 kts 62°
2026-04-29 17:49 40.07747 4.69687 14694 ft 361 kts 59°
2026-04-29 17:50 40.09016 4.72540 15332 ft 365 kts 59°
2026-04-29 17:50 40.10307 4.75417 15970 ft 369 kts 59°
2026-04-29 17:50 40.11606 4.78324 16596 ft 373 kts 59°
2026-04-29 17:50 40.12913 4.81269 17222 ft 376 kts 59°
2026-04-29 17:51 40.14214 4.84199 17832 ft 380 kts 58°
2026-04-29 17:51 40.15565 4.87239 18427 ft 383 kts 58°
2026-04-29 17:51 40.16885 4.90224 18996 ft 385 kts 59°
2026-04-29 17:51 40.18245 4.93306 19580 ft 387 kts 59°
2026-04-29 17:52 40.19589 4.96360 20157 ft 389 kts 59°
2026-04-29 17:52 40.20481 4.98394 20536 ft 390 kts 59°
2026-04-29 17:52 40.22291 5.02517 21283 ft 392 kts 59°
2026-04-29 17:52 40.23654 5.05616 21839 ft 394 kts 59°
2026-04-29 17:53 40.25022 5.08730 22381 ft 396 kts 59°
2026-04-29 17:53 40.26397 5.11864 22918 ft 398 kts 59°
2026-04-29 17:53 40.27774 5.15013 23434 ft 400 kts 59°
2026-04-29 17:53 40.29136 5.18138 23863 ft 401 kts 59°
2026-04-29 17:54 40.30524 5.21316 24242 ft 403 kts 59°
2026-04-29 17:54 40.31919 5.24510 24609 ft 405 kts 59°
2026-04-29 17:54 40.33319 5.27723 24935 ft 407 kts 59°
2026-04-29 17:54 40.34720 5.30951 25259 ft 408 kts 59°
2026-04-29 17:55 40.36128 5.34195 25589 ft 410 kts 60°
2026-04-29 17:55 40.37537 5.37443 25971 ft 410 kts 59°
2026-04-29 17:55 40.39159 5.40512 26279 ft 410 kts 49°
2026-04-29 17:55 40.41109 5.43254 26588 ft 411 kts 45°
2026-04-29 17:56 40.43126 5.45927 26876 ft 413 kts 45°
2026-04-29 17:56 40.45154 5.48608 27176 ft 414 kts 45°
2026-04-29 17:56 40.47188 5.51308 27446 ft 416 kts 45°
2026-04-29 17:56 40.49221 5.54024 27731 ft 418 kts 45°
2026-04-29 17:57 40.51251 5.56765 27996 ft 419 kts 46°
2026-04-29 17:57 40.53291 5.59512 28269 ft 420 kts 45°
2026-04-29 17:57 40.55336 5.62270 28532 ft 422 kts 46°
2026-04-29 17:57 40.56720 5.64141 28719 ft 422 kts 46°
2026-04-29 17:58 40.59432 5.67826 29029 ft 425 kts 46°
2026-04-29 17:58 40.61494 5.70620 29277 ft 426 kts 46°
2026-04-29 17:58 40.63565 5.73419 29482 ft 428 kts 47°
2026-04-29 17:58 40.65650 5.76237 29693 ft 430 kts 46°
2026-04-29 17:59 40.67741 5.79067 29869 ft 432 kts 47°
2026-04-29 17:59 40.69840 5.81915 30085 ft 433 kts 46°
2026-04-29 17:59 40.71940 5.84775 30239 ft 435 kts 47°
2026-04-29 17:59 40.74051 5.87646 30415 ft 437 kts 46°
2026-04-29 18:00 40.76165 5.90529 30555 ft 438 kts 47°
2026-04-29 18:00 40.78285 5.93417 30797 ft 438 kts 46°
2026-04-29 18:00 40.80401 5.96306 30995 ft 438 kts 47°
2026-04-29 18:00 40.82521 5.99199 31196 ft 439 kts 46°
2026-04-29 18:01 40.84642 6.02099 31338 ft 440 kts 47°
2026-04-29 18:01 40.86772 6.05020 31492 ft 442 kts 47°
2026-04-29 18:01 40.88910 6.07949 31636 ft 443 kts 47°
2026-04-29 18:02 40.93221 6.13848 31792 ft 449 kts 47°
2026-04-29 18:02 40.95393 6.16830 31895 ft 451 kts 47°
2026-04-29 18:02 40.97569 6.19820 32052 ft 451 kts 47°
2026-04-29 18:02 40.99735 6.22808 32315 ft 449 kts 47°
2026-04-29 18:03 41.01871 6.25750 32529 ft 448 kts 47°
2026-04-29 18:03 41.04029 6.28722 32700 ft 448 kts 47°
2026-04-29 18:03 41.06187 6.31698 32850 ft 448 kts 47°
2026-04-29 18:03 41.08341 6.34671 33007 ft 448 kts 47°
2026-04-29 18:04 41.10493 6.37648 33172 ft 447 kts 47°
2026-04-29 18:04 41.12647 6.40629 33315 ft 447 kts 47°
2026-04-29 18:04 41.14795 6.43614 33454 ft 447 kts 47°
2026-04-29 18:04 41.16946 6.46600 33585 ft 447 kts 47°
2026-04-29 18:05 41.19093 6.49583 33730 ft 447 kts 47°
2026-04-29 18:05 41.21244 6.52565 33867 ft 447 kts 47°
2026-04-29 18:05 41.23393 6.55552 34003 ft 447 kts 48°
2026-04-29 18:06 41.27426 6.61819 34189 ft 447 kts 52°
2026-04-29 18:06 41.31383 6.68198 34373 ft 447 kts 51°
2026-04-29 18:07 41.34683 6.73507 34505 ft 448 kts 51°
2026-04-29 18:07 41.38654 6.79919 34675 ft 449 kts 51°
2026-04-29 18:08 41.42623 6.86340 34848 ft 449 kts 51°
2026-04-29 18:08 41.46600 6.92793 34945 ft 452 kts 51°
2026-04-29 18:09 41.50590 6.99286 35066 ft 453 kts 51°
2026-04-29 18:09 41.54587 7.05799 35225 ft 453 kts 51°
2026-04-29 18:10 41.58583 7.12302 35471 ft 451 kts 50°
2026-04-29 18:10 41.60566 7.15542 35590 ft 450 kts 50°
2026-04-29 18:10 41.62546 7.18776 35680 ft 450 kts 50°
2026-04-29 18:11 41.66500 7.25252 35801 ft 449 kts 50°
2026-04-29 18:11 41.70444 7.31740 35895 ft 449 kts 50°
2026-04-29 18:12 41.74362 7.38188 35995 ft 449 kts 51°
2026-04-29 18:12 41.78290 7.44676 35991 ft 448 kts 51°
2026-04-29 18:13 41.82217 7.51166 35989 ft 448 kts 51°
2026-04-29 18:13 41.86140 7.57664 35989 ft 448 kts 51°
2026-04-29 18:14 41.90065 7.64190 35988 ft 451 kts 51°
2026-04-29 18:14 41.93993 7.70724 35991 ft 449 kts 51°
2026-04-29 18:15 41.97915 7.77260 35990 ft 449 kts 50°
2026-04-29 18:15 42.01835 7.83797 35989 ft 449 kts 50°
2026-04-29 18:16 42.05745 7.90344 35986 ft 449 kts 50°
2026-04-29 18:16 42.09653 7.96902 35983 ft 449 kts 51°
2026-04-29 18:17 42.13568 8.03483 35990 ft 450 kts 50°
2026-04-29 18:17 42.17475 8.10069 35979 ft 450 kts 50°
2026-04-29 18:18 42.21373 8.16660 35982 ft 450 kts 50°
2026-04-29 18:18 42.25271 8.23258 35979 ft 450 kts 50°
2026-04-29 18:19 42.29162 8.29868 35984 ft 450 kts 50°
2026-04-29 18:19 42.33439 8.35972 35980 ft 447 kts 34°
2026-04-29 18:19 42.36118 8.38074 35986 ft 445 kts 22°
2026-04-29 18:20 42.38966 8.39685 35987 ft 443 kts 19°
2026-04-29 18:20 42.44701 8.42762 35975 ft 443 kts 20°
2026-04-29 18:21 42.50379 8.45895 35970 ft 443 kts 20°
2026-04-29 18:21 42.56084 8.49080 35976 ft 444 kts 20°
2026-04-29 18:22 42.61726 8.52496 35976 ft 446 kts 27°
2026-04-29 18:22 42.67110 8.56712 36133 ft 446 kts 28°
2026-04-29 18:23 42.72495 8.60912 36309 ft 446 kts 27°
2026-04-29 18:23 42.77883 8.65077 36479 ft 445 kts 27°
2026-04-29 18:24 42.83268 8.69236 36616 ft 445 kts 27°
2026-04-29 18:24 42.88654 8.73412 36719 ft 446 kts 27°
2026-04-29 18:25 42.94047 8.77604 36865 ft 446 kts 27°
2026-04-29 18:25 42.99439 8.81798 36986 ft 446 kts 27°
2026-04-29 18:26 43.04835 8.85997 37080 ft 447 kts 27°
2026-04-29 18:26 43.10233 8.90219 37179 ft 447 kts 27°
2026-04-29 18:27 43.15634 8.94449 37283 ft 447 kts 27°
2026-04-29 18:27 43.21040 8.98687 37389 ft 447 kts 27°
2026-04-29 18:28 43.26436 9.02932 37507 ft 447 kts 27°
2026-04-29 18:28 43.31834 9.07183 37690 ft 445 kts 27°
2026-04-29 18:28 43.34494 9.09280 37990 ft 439 kts 27°
2026-04-29 18:29 43.37135 9.11369 38037 ft 438 kts 27°
2026-04-29 18:29 43.42415 9.15549 38011 ft 438 kts 27°
2026-04-29 18:30 43.47698 9.19729 38025 ft 438 kts 26°
2026-04-29 18:30 43.52929 9.23890 38021 ft 437 kts 26°
2026-04-29 18:31 43.58196 9.28080 38027 ft 436 kts 26°
2026-04-29 18:31 43.63449 9.32271 38027 ft 436 kts 26°
2026-04-29 18:32 43.68691 9.36454 38028 ft 435 kts 26°
2026-04-29 18:32 43.76538 9.42739 38034 ft 434 kts 26°
2026-04-29 18:33 43.81768 9.46940 38039 ft 434 kts 26°
2026-04-29 18:33 43.86996 9.51154 38037 ft 436 kts 26°
2026-04-29 18:34 43.91359 9.54665 38036 ft 438 kts 26°
2026-04-29 18:34 43.97530 9.59649 38033 ft 440 kts 26°
2026-04-29 18:35 44.02828 9.63938 38046 ft 442 kts 26°
2026-04-29 18:35 44.08155 9.68266 38035 ft 445 kts 26°
2026-04-29 18:36 44.13510 9.72625 38033 ft 447 kts 26°
2026-04-29 18:36 44.18893 9.77005 38031 ft 448 kts 26°
2026-04-29 18:37 44.24226 9.81364 38028 ft 447 kts 26°
2026-04-29 18:37 44.29590 9.85753 38044 ft 447 kts 26°
2026-04-29 18:38 44.34953 9.90153 38062 ft 448 kts 26°
2026-04-29 18:38 44.40315 9.94557 38064 ft 447 kts 26°
2026-04-29 18:39 44.45675 9.98973 38084 ft 447 kts 26°
2026-04-29 18:39 44.51032 10.03407 38088 ft 448 kts 26°
2026-04-29 18:40 44.56388 10.07835 38090 ft 447 kts 26°
2026-04-29 18:40 44.61733 10.12267 38073 ft 446 kts 26°
2026-04-29 18:41 44.72411 10.21155 38056 ft 446 kts 26°
2026-04-29 18:42 44.77736 10.25601 38059 ft 444 kts 26°
2026-04-29 18:42 44.82977 10.30220 38047 ft 449 kts 34°
2026-04-29 18:43 44.87661 10.36127 38102 ft 453 kts 38°
2026-04-29 18:43 44.92267 10.42092 38127 ft 451 kts 38°
2026-04-29 18:44 44.96914 10.48023 38116 ft 451 kts 38°
2026-04-29 18:44 45.01560 10.53949 38112 ft 449 kts 37°
2026-04-29 18:45 45.06201 10.59871 38110 ft 449 kts 37°
2026-04-29 18:45 45.10838 10.65803 38114 ft 449 kts 37°
2026-04-29 18:46 45.15464 10.71745 38104 ft 449 kts 38°
2026-04-29 18:46 45.20135 10.77599 38091 ft 448 kts 36°
2026-04-29 18:47 45.24849 10.83383 38105 ft 448 kts 36°
2026-04-29 18:47 45.29564 10.89182 38122 ft 449 kts 36°
2026-04-29 18:48 45.34299 10.95011 38113 ft 451 kts 36°
2026-04-29 18:48 45.39036 11.00863 38113 ft 451 kts 36°
2026-04-29 18:49 45.43770 11.06727 38134 ft 451 kts 36°
2026-04-29 18:49 45.48525 11.12631 38120 ft 455 kts 36°
2026-04-29 18:50 45.53295 11.18570 38128 ft 455 kts 36°
2026-04-29 18:50 45.58059 11.24508 38135 ft 455 kts 36°
2026-04-29 18:51 45.62822 11.30462 38148 ft 456 kts 36°
2026-04-29 18:51 45.67603 11.36450 38143 ft 457 kts 36°
2026-04-29 18:52 45.72390 11.42463 38152 ft 458 kts 36°
2026-04-29 18:52 45.77165 11.48482 38155 ft 458 kts 36°
2026-04-29 18:53 45.81936 11.54503 38176 ft 457 kts 36°
2026-04-29 18:53 45.86678 11.60501 38157 ft 457 kts 36°
2026-04-29 18:54 45.91446 11.66538 38170 ft 457 kts 36°
2026-04-29 18:54 45.96303 11.72404 38157 ft 455 kts 33°
2026-04-29 18:55 46.01231 11.78093 38166 ft 454 kts 33°
2026-04-29 18:55 46.06143 11.83781 38162 ft 453 kts 33°
2026-04-29 18:56 46.10265 11.88566 38164 ft 454 kts 33°
2026-04-29 18:56 46.15140 11.94235 38164 ft 454 kts 34°
2026-04-29 18:57 46.20050 11.99963 38156 ft 453 kts 33°
2026-04-29 18:57 46.24947 12.05696 38161 ft 454 kts 33°
2026-04-29 18:58 46.29861 12.11458 38158 ft 455 kts 34°
2026-04-29 18:58 46.34769 12.17225 38167 ft 453 kts 33°
2026-04-29 18:59 46.39657 12.22973 38152 ft 452 kts 33°